User: anonymous   Login
Location: Unspecified
(0.0000°N, 0.0000°E)
Time: 02:59:28
(UTC+00:00)
Language:

Intelsat II F-4 - Orbit

View from above orbital plane
View from above orbital plane
View from above satellite
View from above satellite

Ground track
Ground track

The orbit data is extracted from the following two-line orbital elements,

1  2969U 67094A   18171.60061437 +.00000109 +00000-0 +00000-0 0  9997
2  2969 003.0653 295.1594 0013061 237.7926 147.1718 01.00308935086054
Epoch (UTC): 20 June 2018 14:24:53
Eccentricity: 0.0013061
inclination: 3.0653°
perigee height: 35721 km
apogee height: 35831 km
right ascension of ascending node: 295.1594°
argument of perigee: 237.7926°
revolutions per day: 1.00308935
mean anomaly at epoch: 147.1718°
orbit number at epoch: 8605

The dashed part of the orbit path shows where the satellite is in the earth's shadow,  

DLR